www.pogodaiklimat.ru

Погода и климат >> Архив погоды >> Ирак >> Karbalaa


ПОГОДА в Karbalaa

  • Прогноз погоды в Karbalaa
  • Монитор погоды в Karbalaa
  • Климат города

АРХИВ ПОГОДЫ в Karbalaa

Время (UTC), дата Ветер
(напр.,м/с)
 
Видим.   Явления Облачность Т
(С)
Тd
(С)
f
(%)
Тe
(С)
Тes
(С)
Комфортность P
(гПа)
Po
(гПа)
Тmin
(С)
Tmax
(С)
R
(мм)
R24
(мм)
S
(см)
21 10.10 С 4 10 км ясно +26.9 +12.2 40 +28 +28 жарко 1011.2 1011.0
00 11.10 С 3 10 км ясно +24.7 +13.2 49 +27 +27 жарко 1011.6 1012.0
06 11.10 С 2 10 км ясно +25.2 +11.4 42 +27 +32 жарко 1014.3 1014.0 +22.2
09 11.10 С 3 10 км ясно +31.7 +13.0 32 +33 +43 жарко 1013.6 1014.0
12 11.10 СЗ 2 10 км ясно +32.8 +11.3 27 +33 +38 жарко 1012.2 1012.0
15 11.10 штиль 0 10 км ясно +29.6 +10.8 31 +30 +30 жарко 1013.2 1013.0
18 11.10 штиль 0 10 км ясно +26.8 +10.9 37 +28 +28 жарко 1014.3 1014.0 +33.2
21 11.10 штиль 0 10 км ясно +24.5 +8.7 37 +25 +25 комфорт 1014.3 1014.0
03 12.10 штиль 0 10 км ясно +20.5 +13.5 64 +23 +23 комфорт 1014.7 1015.0
06 12.10 С 2 10 км ясно +24.0 +10.0 41 +25 +30 комфорт 1015.8 1016.0 +19.7
09 12.10 С 3 10 км ясно +31.2 +10.5 28 +31 +41 жарко 1015.7 1016.0
12 12.10 штиль 0 10 км ясно +32.8 +9.2 23 +32 +39 жарко 1013.9 1014.0
15 12.10 С 2 10 км ясно +30.5 +9.9 28 +30 +30 жарко 1014.0 1014.0
18 12.10 штиль 0 10 км ясно +26.8 +7.3 29 +26 +26 жарко 1015.2 1015.0 +33.4
03 13.10 штиль 0 10 км ясно +20.4 +8.6 47 +21 +21 комфорт 1014.0 1014.0
06 13.10 штиль 0 10 км ясно +26.4 +7.4 30 +26 +33 жарко 1015.0 1015.0 +19.6
09 13.10 С 3 10 км ясно +32.7 +6.0 19 +31 +41 жарко 1013.6 1014.0
12 13.10 штиль 0 10 км ясно +33.8 +8.4 21 +32 +40 жарко 1011.7 1012.0
15 13.10 штиль 0 10 км ясно +30.4 +10.0 28 +30 +30 жарко 1012.0 1012.0
18 13.10 СЗ 4 10 км ясно +27.7 +7.7 28 +27 +27 жарко 1012.5 1013.0 +34.4
21 13.10 СЗ 2 10 км ясно +26.2 +6.8 29 +26 +26 жарко 1011.9 1012.0
00 14.10 штиль 0 10 км ясно +24.7 +7.7 34 +25 +25 комфорт 1011.4 1011.0
03 14.10 С 2 10 км ясно +22.6 +7.9 39 +24 +24 комфорт 1011.9 1012.0
09 14.10 С 3 10 км ясно +34.0 +11.0 25 +34 +44 очень
жарко
1011.7 1012.0
12 14.10 С 3 10 км ясно +35.2 +7.8 19 +33 +38 жарко 1009.9 1010.0
15 14.10 штиль 0 10 км ясно +31.2 +12.7 32 +32 +32 жарко 1009.4 1009.0
21 14.10 С 3 10 км ясно +25.5 +9.0 35 +26 +26 жарко 1010.2 1010.0
00 15.10 штиль 0 10 км ясно +21.7 +9.6 46 +23 +23 комфорт 1009.7 1010.0
03 15.10 штиль 0 10 км ясно +20.8 +6.3 39 +21 +21 комфорт 1010.0 1010.0
06 15.10 штиль 0 10 км ясно +25.8 +9.2 35 +26 +33 жарко 1012.2 1012.0 +19.5
12 15.10 СЗ 4 10 км ясно +35.5 +8.1 19 +34 +37 очень
жарко
1010.1 1010.0
15 15.10 штиль 0 10 км ясно +32.0 +7.4 22 +31 +31 жарко 1000.0 1000.0
21 15.10 С 2 10 км ясно +23.0 +7.2 36 +24 +24 комфорт 1011.5 1012.0
00 16.10 СЗ 2 10 км ясно +20.5 +5.3 37 +22 +22 комфорт 1011.3 1011.0
03 16.10 СЗ 4 10 км ясно +19.0 +5.8 42 +19 +19 1012.3 1012.0
06 16.10 штиль 0 10 км ясно +23.7 +8.5 38 +24 +31 комфорт 1014.0 1014.0 +18.6
09 16.10 С 2 10 км ясно +31.2 +7.5 23 +30 +42 жарко 1013.2 1013.0
12 16.10 СЗ 2 10 км ясно +33.8 +8.7 21 +37 +42 очень
душно
1010.9 1011.0
15 16.10 штиль 0 10 км ясно +30.5 +9.9 28 +30 +30 жарко 1011.3 1011.0
18 16.10 СЗ 2 10 км ясно +27.1 +8.9 32 +27 +27 жарко 1012.5 1013.0 +34.8
21 16.10 С 2 10 км ясно +24.3 +5.0 29 +24 +24 комфорт 1012.8 1013.0
03 17.10 штиль 0 10 км ясно +20.0 +5.9 40 +21 +21 комфорт 1013.1 1013.0
06 17.10 С 3 10 км ясно +22.6 +5.4 33 +23 +27 комфорт 1014.8 1015.0 +18.9
09 17.10 С 2 10 км ясно +29.3 +7.9 26 +29 +40 жарко 1014.6 1015.0
12 17.10 штиль 0 10 км ясно +31.6 +4.4 18 +29 +36 жарко 1012.4 1012.0

 

Местоположение метеостанции Karbalaa (Ирак): широта 32.62 долгота 44.02 высота над уровнем моря 29 м.

В архиве по умолчанию представлена погода в Karbalaa за последнюю неделю. Архивные данные за месяц целиком и за предыдущие месяцы, начиная с января 2011 года, Вы можете получить, выбрав интересующий диапазон дат из раскрывающегося списка и нажав кнопку "Ввод!".

Внимание! Время в таблицах - всемирное. Для получения местного времени необходимо прибавить поправку, которая в Karbalaa равна 3 ч.

Смотрите также архив погоды в соседних городах и на ближайших метеорологических станциях:

Погода в Hella (Ирак) (45 км)
Погода в Baghdad (Ирак) (71 км)
Погода в Najaf (Ирак) (77 км)
Погода в Azizyah (Ирак) (104 км)
Погода в Ramadi (Ирак) (113 км)
Погода в Diwaniya (Ирак) (115 км)
Погода в Heet (Ирак) (115 км)
Погода в Ayn Al-Tamar (Ирак) (122 км)
Погода в Al-Khalis (Ирак) (143 км)
Погода в Ubaydah Bin Al Jarrah (Ирак) (163 км)

Пояснения к столбцам:

Ветер - указаны скорость ветра в м/с - средняя за 10 мин, порывы в срок и между сроками (в фигурных скобках) и направление, откуда дует ветер: С - северный, СВ - северо-восточный, В - восточный, ЮВ - юго-восточный, Ю - южный, ЮЗ - юго-западный, З - западный, СЗ - северо-западный.
Видимость - горизонтальная дальность видимости в метрах или километрах. При видимости от 1 до 10 км при отсутствии осадков обычно наблюдается дымка, при ухудшении видимости до 1 км и менее - туман. В сухую погоду видимость может ухудшаться дымом, пылью или мглою.
Явления - указаны атмосферные явления, наблюдавшиеся в срок или в последний час перед сроком; фигурными скобками обозначены явления, наблюдавшиеся между сроками (за 1-3 часа до срока); квадратными скобками обозначены град или гололедные отложения с указанием их диаметра в мм.
Облачность - указаны через наклонную черту общая и нижняя облачность в баллах и высота нижней границы облаков в метрах; квадратными скобками обозначены формы облаков: Ci - перистые, Cs - перисто-слоистые, Cc - перисто-кучевые, Ac - высококучевые, As - высокослоистые, Sc - слоисто-кучевые, Ns - слоисто-дождевые, Cu - кучевые, Cb - кучево-дождевые. Подробнее классификацию облаков см. в Атласе облаков (PDF).
T - Температура воздуха - температура, измеренная на высоте 2 м над землей.
Td - Температура точки росы - температура, при понижении до которой содержащийся в воздухе водяной пар достигнет насыщения.
f - Относительная влажность воздуха - влажноcть воздуха, измеренная на высоте 2 м над землей.
Te - Эффективная температура - температура, которую ощущает одетый по сезону человек в тени. Характеристика душности погоды. При расчете учитывается влияние влажности воздуха и скорости ветра на теплоощущения человека.
Tes - Эффективная температура на солнце - температура, которую ощущает человек, с поправкой на солнечный нагрев. Характеристика знойности погоды. Зависит от высоты солнца над горизонтом, облачности и скорости ветра. Ночью, в пасмурную погоду, а также при ветре 12 м/с и более поправка равна нулю.
P - Атмосферное давление - приведенное к уровню моря атмосферное давление.
Po - Атмосферное давление - измеренное на уровне метеостанции атмосферное давление.
Tmin - Минимальная температура - минимум температуры воздуха на высоте 2 м над землей.
Tmax - Максимальная температура - максимум температуры воздуха на высоте 2 м над землей.
R - Количество осадков - Количество выпавших осадков за период времени, мм. При наведении курсора мыши на число - период времени, за который выпало указанное количество осадков.
R24 - Количество осадков - Количество выпавших осадков за 24 часа, мм.
S - Снежный покров - Высота снежного покрова, см. При наведении курсора мыши на число - состояние снежного покрова и степень покрытия местности в баллах.